STARLINK-32421, 61628

Orbit data source: Space-Track

STARLINK-32421, 61628 is a payload satellite owned by SpaceX/Seattle (US) in LEO that was launched on Wed, 23 Oct 2024 UTC via an FALCON 9 launch vehicle from the Air Force Eastern Test Range (AFETR). Payload-class satellites include a variety of spacecraft equipped with specific instruments for various scientific and technological missions. These include communications satellites like Starlink; space stations such as the ISS; scientific satellites like the Hubble; Earth observation satellites from companies like Planet Labs, Umbra, and HawkEye 360; GPS; miniature CubeSats for education and research; and military/defense satellites.

Loading next visibility...
Identifier
61628, 2024-191H
Orbit
LEO
Country
Flag of USUS
Related business
Manufacturer
SpaceX/Seattle
Mission
Operational Commercial Communications
Bus & Motor
STARLINK V2M, Unknown motor
Mass
730 kg wet, ~700 kg dry
Launch date (UTC)
2024-10-23 (1 year ago)
Launch vehicle
FALCON 9
Launch site
Air Force Eastern Test Range (AFETR)
Object type
Payload
Rocket body
Debris
Shape & HBR
Box + 2 Pan, 17.7 m
Radar Cross Section
33.884 m², Large (>1 m²)

Expand to show TLE details & history
Last TLE update: 1 day ago

TLE from 1 day ago
0 STARLINK-32421
1 61628U 24191H   25286.23370875 -.00005576  00000-0 -19318-3 0  9998
2 61628  43.0014 267.3688 0000859 264.7190  95.3563 15.27593808 54983
Epoch: 2025-10-13T05:36Z
TLE epoch observation values (Epoch: 2025-10-13T05:36:32.435Z)
Latitude
-0.00009°
Longitude
161.19414°
Altitude
482.838 km
Speed
7.626 km/s
True Right ascension
17h 49m 28s
True Declination
0° 00' 00"
Sunlit
Object was in daylight at epoch
Visualization orbit readout
Latitude
Unknown
Longitude
Unknown
Altitude
Unknown
Speed
Unknown
Apparent Right ascension
Unknown
Apparent Declination
Unknown
Sunlit
N/A
Visualization observer readout
Local Sidereal Time
06:42:05
Azimuth
Unknown
Elevation
Unknown
Doppler factor
Unknown
Orbital elements
Apogee altitude
485.542 km
Perigee altitude
484.363 km
Semi-major axis
6,863.09 km
Eccentricity
0.00009
Inclination
43.0014°
RAAN
267.3688°
Arg. of periapsis
264.719°
True anomaly
95.3661°
Mean anomaly
95.3563°
Eccentric anomaly
95.3612°
Mean motion
3.81736 °/min
Orbital period
94.31 mins
BSTAR
-0.00019318
Loading maneuver chart data...
Computing Atmospheric mass density...
Loading historical data...
Loading historical data...
Loading historical data...
Loading historical data...
Loading historical data...
Loading historical data...
Loading historical data...

Documentation

Showing up to 5 results
|